Zurück zum Katalog

STARLINK-2485

AktivKommunikationVLEO
NORAD 48142·PAYLOAD·🇺🇸 United States

Gestartet Apr 7, 2021 von Cape Canaveral Space Force Station

Loading…

Nächste Überflüge (nächste 24 Stunden)

TLE

AktuellSource: CelesTrak SupGP

Epoche: Sep 14, 2026, 20:29 UTC

1 48142C 21027BC  26257.85395833 -.00014288  00000+0 -45961-3 0  2576
2 48142  53.1591 352.7220 0001366  79.7411 353.8313 15.31698279    19

Verfolge STARLINK-2485 in Echtzeit mit AllMySat

Download on the App Store